Simultaneous Nadir Overpasses (SNOs) Predictions

Prediction of SNOs between METOP-B and TERRA Satellite Orbit:

Table of predicted SNOs for the next 14.0 days since TLE Epoch: 7/6/2024
Index Date (METOP-B) Time (METOP-B) Lat,Lon (METOP-B) SZA (METOP-B ) Date (TERRA) Time (TERRA) Lat,Lon (TERRA) SZA (TERRA ) Distance(km) Time Diff (sec)
1 07/06/2024 23:18:43 79.99,-150.60 57.91 07/06/2024 23:19:42 79.98,-150.75 57.90 3.15 59
2 07/07/2024 00:09:20 -80.12, 18.03 121.90 07/07/2024 00:09:00 -80.11, 17.99 121.91 1.09 20
3 07/09/2024 13:49:09 79.95, -8.63 58.14 07/09/2024 13:50:17 79.95, -8.67 58.15 0.78 68
4 07/09/2024 14:39:46 -80.08, 160.01 121.66 07/09/2024 14:39:35 -80.08, 160.05 121.66 0.74 11
5 07/12/2024 05:10:11 -80.06, -57.78 121.34 07/12/2024 05:10:09 -80.06, -57.79 121.35 0.30 2
6 07/14/2024 19:40:36 -80.01, 84.08 121.04 07/14/2024 19:40:42 -80.02, 84.20 121.02 2.58 6
7 07/14/2024 20:31:11 80.16,-107.02 59.21 07/14/2024 20:29:58 80.17,-106.89 59.21 2.60 73
8 07/17/2024 10:11:01 -79.98,-133.83 120.65 07/17/2024 10:11:15 -79.99,-133.70 120.63 2.68 14
9 07/17/2024 11:01:33 80.22, 35.96 59.73 07/17/2024 11:00:29 80.21, 35.79 59.69 3.24 64
10 07/20/2024 00:41:25 -79.98, 8.50 120.19 07/20/2024 00:41:47 -79.97, 8.51 120.19 0.34 22



Historial Predications of SNOs between METOP-B and TERRA
